📊 Raw Sensor Data

Showing records 35551 to 35575 of 84,880 total

ID Distance (ft) Battery V Battery A Int Temp (°F) Int Humid (%) Ext Temp (°F) Solar V RSSI SNR Time Stamp
49342 15.6 3.75 0 61 43 65 4.50 -70 7 08/16/2025 07:00 AM
49341 15.6 3.74 -5 60 44 63 4.50 -69 8 08/16/2025 06:45 AM
49340 15.5 3.85 -10 60 43 61 4.50 -70 8 08/16/2025 06:30 AM
49339 15.5 3.88 -5 60 44 61 1.10 -70 9 08/16/2025 06:15 AM
49338 15.5 3.87 -5 59 44 61 0.20 -69 8 08/16/2025 06:00 AM
49337 15.5 3.87 -5 59 44 61 0.00 -69 8 08/16/2025 05:45 AM
49336 15.5 3.74 -35 59 44 61 0.10 -70 8 08/16/2025 05:30 AM
49335 15.5 3.74 -5 59 44 61 0.00 -70 8 08/16/2025 05:15 AM
49334 15.5 3.74 -5 59 44 60 0.00 -70 8 08/16/2025 05:00 AM
49333 15.5 3.74 -5 59 44 60 0.00 -69 8 08/16/2025 04:45 AM
49332 15.5 3.74 -5 59 44 60 0.00 -69 8 08/16/2025 04:30 AM
49331 15.5 3.74 -5 59 44 60 0.00 -69 8 08/16/2025 04:15 AM
49330 15.5 3.74 -5 59 44 60 0.00 -70 8 08/16/2025 04:00 AM
49329 15.5 3.75 -5 59 44 60 0.10 -70 8 08/16/2025 03:45 AM
49328 15.5 3.75 -5 59 44 60 0.00 -69 8 08/16/2025 03:30 AM
49327 15.5 3.75 -5 59 45 61 0.00 -70 8 08/16/2025 03:15 AM
49326 15.5 3.75 -5 59 45 61 0.00 -70 8 08/16/2025 03:00 AM
49325 15.5 3.75 -5 59 45 61 0.00 -70 8 08/16/2025 02:45 AM
49324 15.5 3.75 -5 59 45 60 0.00 -69 8 08/16/2025 02:30 AM
49323 15.5 3.75 -5 60 45 60 0.00 -69 8 08/16/2025 02:15 AM
49322 15.6 3.76 -5 61 45 61 0.00 -69 9 08/16/2025 02:00 AM
49321 15.5 3.75 -5 62 45 63 0.00 -69 8 08/16/2025 01:45 AM
49320 15.5 3.75 -5 63 45 63 0.00 -68 8 08/16/2025 01:30 AM
49319 15.5 3.76 -5 63 45 64 0.00 -68 8 08/16/2025 01:15 AM
49318 15.5 3.89 -5 63 45 64 0.00 -69 8 08/16/2025 01:00 AM